O3B FM15 (43231 NORAD) Tracking and Keplerian Element Data

This shows tracking and keplerian element data for the satellite.

Feedback or suggestion? Click here.




ElementValue
Catalog43231
NameO3B FM15
Epoch Orbit3758
Epoch Day89.7352193
Epoch Year2020
RAAN4.5623
Inclination0.0476
Eccentricity0.0002862
Argument of Perigee7.5192
Mean Anonmoly347.9252
Mean Motion5.00115301
Decay Rate-1.9E-07
L11 43231U 18024A 20089.73521930 -.00000019 00000-0 00000-0 0 9998
L22 43231 0.0476 4.5623 0002862 7.5192 347.9252 5.00115301 37585

Live tracking and technical data element details for O3B FM15 (NORAD 43231). O3B FM15 can be tracked NOW for your location showing map with azimuth and elevation plus other details from your city location.

Track the satellite on the map from your city or location and see movement details for azimuth, elevation, latitude, longitude, range, height, and movement on the map or in text.







IsCatalogInMostPopularTable: catalog: 43231, numindb: 391
Update: records affected: 1



GetName: 43231 O3B FM15

Hit Count: updated at: Thu, 02 Apr 2020 03:37:04 GMT